CW9927 Weather Reports


time (UTC)temp
C
wind
direction
speed
KPH
gust
KPH
rain 1hr
cm
rain 24hr
cm
rain mn
cm
humidity
%
barometer
mb
20260902191136 23 0.0 0.0 0.00 0.00 0.00 59 1018.3
20260902185116 22 0.0 0.0 0.00 0.00 0.00 61 1018.4
20260902184116 22 0.0 0.0 0.00 0.00 0.00 62 1018.5
20260902183116 21 0.0 0.0 0.00 0.00 0.00 62 1018.5
20260902182116 21 0.0 0.0 0.00 0.00 0.00 63 1018.7
20260902181117 21 0.0 0.0 0.00 0.00 0.00 62 1018.8
20260902180157 21 0.0 0.0 0.00 0.00 0.00 64 1018.8
20260902175116 21 0.0 0.0 0.00 0.00 0.00 64 1018.9
20260902174116 20 0.0 0.0 0.00 0.00 0.00 65 1018.9
20260902173116 20 0.0 0.0 0.00 0.00 0.00 66 1018.8
20260902172116 20 0.0 0.0 0.00 0.00 0.00 67 1018.8
20260902171136 19 0.0 0.0 0.00 0.00 0.00 67 1018.8
20260902170116 19 0.0 0.0 0.00 0.00 0.00 67 1018.9
20260902165116 19 0.0 0.0 0.00 0.00 0.00 68 1018.9
20260902164116 18 0.0 0.0 0.00 0.00 0.00 71 1019.0
20260902163116 18 0.0 0.0 0.00 0.00 0.00 71 1019.0
20260902162138 17 0.0 0.0 0.00 0.00 0.00 77 1018.8
20260902161116 16 0.0 0.0 0.00 0.00 0.00 81 1018.8
20260902160116 15 0.0 0.0 0.00 0.00 0.00 85 1018.8
20260902155116 14 0.0 0.0 0.00 0.00 0.00 85 1018.7
20260902154116 14 0.0 0.0 0.00 0.00 0.00 89 1018.7
20260902153139 13 0.0 0.0 0.00 0.00 0.00 91 1018.7
20260902152118 12 0.0 0.0 0.00 0.00 0.00 91 1018.7
20260902151118 12 0.0 0.0 0.00 0.00 0.00 91 1018.8
20260902150116 13 0.0 0.0 0.00 0.00 0.00 92 1018.7
20260902145116 12 0.0 0.0 0.00 0.00 0.00 93 1018.6
20260902144136 11 0.0 0.0 0.00 0.00 0.00 93 1018.6
20260902143116 10 0.0 0.0 0.00 0.00 0.00 93 1018.3
20260902142120 9 0.0 0.0 0.00 0.00 0.00 91 1018.2
20260902141119 9 0.0 0.0 0.00 0.00 0.00 91 1018.1
20260902140116 9 0.0 0.0 0.00 0.00 0.00 91 1018.1
20260902135116 9 0.0 0.0 0.00 0.00 0.00 91 1018.1
20260902134116 9 0.0 0.0 0.00 0.00 0.00 91 1018.1
20260902133116 9 0.0 0.0 0.00 0.00 0.00 91 1018.1
20260902132137 9 0.0 0.0 0.00 0.00 0.00 91 1017.9
20260902131116 9 0.0 0.0 0.00 0.00 0.00 90 1017.8
20260902125316 9 0.0 0.0 0.00 0.00 0.00 90 1017.8
20260902124318 10 0.0 0.0 0.00 0.00 0.00 90 1017.8
20260902123318 10 0.0 0.0 0.00 0.00 0.00 90 1017.7
20260902122316 10 0.0 0.0 0.00 0.00 0.00 91 1017.7
20260902121316 9 0.0 0.0 0.00 0.00 0.00 90 1017.6
20260902120316 9 0.0 0.0 0.00 0.00 0.00 90 1017.8
20260902115316 9 0.0 0.0 0.00 0.00 0.00 89 1017.8
20260902114316 9 0.0 0.0 0.00 0.00 0.00 89 1017.9
20260902113336 9 0.0 0.0 0.00 0.00 0.00 89 1017.8
20260902112316 9 0.0 0.0 0.00 0.00 0.00 89 1017.9
20260902111316 9 0.0 0.0 0.00 0.00 0.00 89 1017.9
20260902110316 10 0.0 0.0 0.00 0.00 0.00 89 1017.9
20260902105316 10 0.0 0.0 0.00 0.00 0.00 89 1017.9
20260902104316 10 0.0 0.0 0.00 0.00 0.00 89 1017.9
20260902103336 10 0.0 0.0 0.00 0.00 0.00 89 1017.9
20260902102316 10 0.0 0.0 0.00 0.00 0.00 89 1017.9
20260902101316 10 0.0 0.0 0.00 0.00 0.00 89 1018.0
20260902100316 10 0.0 0.0 0.00 0.00 0.00 89 1018.0
20260902095316 11 0.0 0.0 0.00 0.00 0.00 89 1017.8
20260902094316 11 0.0 0.0 0.00 0.00 0.00 89 1017.8
20260902093336 11 0.0 0.0 0.00 0.00 0.00 89 1017.8
20260902092316 11 0.0 0.0 0.00 0.00 0.00 88 1017.7
20260902091336 10 0.0 0.0 0.00 0.00 0.00 88 1017.7
20260902090316 11 0.0 0.0 0.00 0.00 0.00 88 1017.7
20260902085317 11 0.0 0.0 0.00 0.00 0.00 87 1017.8
20260902084316 11 0.0 0.0 0.00 0.00 0.00 87 1017.6
20260902083338 11 0.0 0.0 0.00 0.00 0.00 88 1017.7
20260902082336 11 0.0 0.0 0.00 0.00 0.00 88 1017.8
20260902081316 11 0.0 0.0 0.00 0.00 0.00 87 1017.8
20260902080316 11 0.0 0.0 0.00 0.00 0.00 87 1017.9
20260902075316 12 0.0 0.0 0.00 0.00 0.00 87 1017.9
20260902074316 12 0.0 0.0 0.00 0.00 0.00 87 1017.8
20260902073318 12 0.0 0.0 0.00 0.00 0.00 86 1017.9
20260902072338 12 0.0 0.0 0.00 0.00 0.00 87 1017.8
20260902071336 12 0.0 0.0 0.00 0.00 0.00 87 1017.7
20260902070340 12 0.0 0.0 0.00 0.00 0.00 87 1017.7
20260902070214 13 0.0 0.0 0.00 0.00 0.00 87 1017.7
20260902065419 13 0.0 0.0 0.00 0.00 0.00 86 1017.8
20260902064415 13 0.0 0.0 0.00 0.00 0.00 86 1017.7
20260902063418 13 0.0 0.0 0.00 0.00 0.00 86 1017.7
20260902062456 13 0.0 0.0 0.00 0.00 0.00 86 1017.7
20260902061418 13 0.0 0.0 0.00 0.00 0.00 85 1017.7
20260902060415 13 0.0 0.0 0.00 0.00 0.00 85 1017.9
20260902055417 13 0.0 0.0 0.00 0.00 0.00 84 1017.9
20260902054418 13 0.0 0.0 0.00 0.00 0.00 84 1017.9
20260902053417 14 0.0 0.0 0.00 0.00 0.00 84 1018.1
20260902052437 14 0.0 0.0 0.00 0.00 0.00 84 1018.1
20260902051417 14 0.0 0.0 0.00 0.00 0.00 84 1018.1
20260902050417 15 0.0 0.0 0.00 0.00 0.00 84 1018.2
20260902045418 15 0.0 0.0 0.00 0.00 0.00 84 1018.1
20260902044418 15 0.0 0.0 0.00 0.00 0.00 84 1018.1
20260902043418 15 0.0 0.0 0.00 0.00 0.00 84 1018.0
20260902042418 15 0.0 0.0 0.00 0.00 0.00 83 1018.0
20260902041418 15 0.0 0.0 0.00 0.00 0.00 83 1017.8
20260902040417 15 0.0 0.0 0.00 0.00 0.00 82 1017.8
20260902035418 15 0.0 0.0 0.00 0.00 0.00 81 1017.6
20260902034441 15 0.0 0.0 0.00 0.00 0.00 80 1017.4
20260902033417 16 0.0 0.0 0.00 0.00 0.00 79 1017.3
20260902032419 16 0.0 0.0 0.00 0.00 0.00 78 1017.2
20260902031417 16 0.0 0.0 0.00 0.00 0.00 77 1017.1
20260902030417 16 0.0 0.0 0.00 0.00 0.00 76 1017.0
20260902025435 16 0.0 0.0 0.00 0.00 0.00 75 1016.8
20260902024438 16 0.0 0.0 0.00 0.00 0.00 75 1016.5
20260902023417 16 0.0 0.0 0.00 0.00 0.00 73 1016.4
20260902022438 17 0.0 0.0 0.00 0.00 0.00 71 1016.4
20260902021438 17 0.0 0.0 0.00 0.00 0.00 69 1016.3
20260902020438 18 0.0 0.0 0.00 0.00 0.00 67 1016.3
20260902015418 18 0.0 0.0 0.00 0.00 0.00 66 1016.2
20260902014418 18 270 1.6 9.7 0.00 0.00 0.00 65 1016.1
20260902013417 18 225 3.2 14.5 0.00 0.00 0.00 64 1016.2
20260902012437 19 0.0 0.0 0.00 0.00 0.00 64 1016.0
20260902011437 19 0.0 0.0 0.00 0.00 0.00 62 1016.1
20260902010508 19 0.0 0.0 0.00 0.00 0.00 62 1016.0
20260902010348 19 0.0 0.0 0.00 0.00 0.00 62 1016.0
20260902005137 20 225 4.8 24.1 0.00 0.00 0.00 61 1015.9
20260902004138 20 0.0 1.6 0.00 0.00 0.00 61 1015.9
20260902003117 20 0.0 4.8 0.00 0.00 0.00 60 1015.8
20260902002117 20 225 11.3 22.5 0.00 0.00 0.00 59 1015.7
20260902001117 21 270 12.9 25.7 0.00 0.00 0.00 58 1015.8
20260902000118 21 270 8.0 14.5 0.00 0.00 0.00 56 1015.8
20260901235117 21 225 4.8 17.7 0.00 0.00 0.00 56 1015.7
20260901234117 22 248 3.2 11.3 0.00 0.00 0.00 56 1015.8
20260901233138 22 0.0 1.6 0.00 0.00 0.00 55 1015.8
20260901232117 22 0.0 0.0 0.00 0.00 0.00 54 1015.9
20260901231117 22 0.0 0.0 0.00 0.00 0.00 54 1016.0
20260901230138 22 0.0 0.0 0.00 0.00 0.00 54 1016.1
20260901225116 22 225 4.8 16.1 0.00 0.00 0.00 53 1016.2
20260901224116 22 0.0 0.0 0.00 0.00 0.00 53 1016.0
20260901223116 22 0.0 0.0 0.00 0.00 0.00 52 1016.1
20260901222116 22 0.0 0.0 0.00 0.00 0.00 51 1016.2
20260901221116 22 0.0 0.0 0.00 0.00 0.00 52 1016.2
20260901220116 22 0.0 0.0 0.00 0.00 0.00 52 1016.3
20260901215116 22 0.0 0.0 0.00 0.00 0.00 52 1016.4
20260901214116 22 0.0 0.0 0.00 0.00 0.00 53 1016.4
20260901213136 22 248 6.4 16.1 0.00 0.00 0.00 54 1016.5
20260901212157 22 0.0 0.0 0.00 0.00 0.00 55 1016.3
20260901211116 22 0.0 0.0 0.00 0.00 0.00 53 1016.3
20260901210116 23 0.0 0.0 0.00 0.00 0.00 53 1016.5
20260901205116 22 0.0 0.0 0.00 0.00 0.00 49 1016.5
20260901204116 22 0.0 0.0 0.00 0.00 0.00 49 1016.5
20260901203116 22 0.0 0.0 0.00 0.00 0.00 50 1016.6
20260901202116 22 0.0 0.0 0.00 0.00 0.00 52 1016.7
20260901201116 21 0.0 0.0 0.00 0.00 0.00 52 1016.9
20260901200116 21 0.0 0.0 0.00 0.00 0.00 54 1016.9
20260901195116 21 0.0 0.0 0.00 0.00 0.00 54 1017.1
20260901194136 21 0.0 0.0 0.00 0.00 0.00 53 1017.2
20260901193118 21 0.0 0.0 0.00 0.00 0.00 52 1017.4
20260901192116 21 0.0 0.0 0.00 0.00 0.00 54 1017.3